| time (UTC) | temp C | wind direction | speed KPH | gust KPH | rain 1hr cm | rain 24hr cm | rain mn cm | humidity % | barometer mb |
| 20260502163603 | 12 | 299 | 9.7 | 16.1 | 0.00 | 0.00 | 0.00 | 56 | 1001.5 |
| 20260502162703 | 13 | 299 | 9.7 | 17.7 | 0.00 | 0.00 | 0.00 | 55 | 1001.6 |
| 20260502161803 | 13 | 296 | 12.9 | 27.4 | 0.00 | 0.00 | 0.00 | 55 | 1001.6 |
| 20260502160903 | 13 | 306 | 12.9 | 24.1 | 0.00 | 0.00 | 0.00 | 53 | 1001.6 |
| 20260502151825 | 14 | 283 | 14.5 | 32.2 | 0.00 | 0.00 | 0.00 | 52 | 1001.7 |
| 20260502150925 | 14 | 303 | 12.9 | 32.2 | 0.00 | 0.00 | 0.00 | 52 | 1001.7 |
| 20260502123604 | 16 | 278 | 17.7 | 32.2 | 0.00 | 0.00 | 0.00 | 43 | 1001.5 |
| 20260502122704 | 16 | 285 | 16.1 | 30.6 | 0.00 | 0.00 | 0.00 | 43 | 1001.4 |
| 20260502121804 | 16 | 296 | 19.3 | 30.6 | 0.00 | 0.00 | 0.00 | 44 | 1001.3 |
| 20260502120904 | 16 | 296 | 17.7 | 37.0 | 0.00 | 0.00 | 0.00 | 43 | 1001.4 |
| 20260502115404 | 16 | 298 | 16.1 | 25.7 | 0.00 | 0.00 | 0.00 | 46 | 1001.3 |
| 20260502114525 | 16 | 297 | 17.7 | 32.2 | 0.00 | 0.00 | 0.00 | 47 | 1001.3 |
| 20260502113604 | 16 | 278 | 12.9 | 24.1 | 0.00 | 0.00 | 0.00 | 49 | 1001.3 |
| 20260502112704 | 16 | 264 | 11.3 | 22.5 | 0.00 | 0.00 | 0.00 | 51 | 1001.4 |
| 20260502111825 | 16 | 276 | 14.5 | 30.6 | 0.00 | 0.00 | 0.00 | 52 | 1001.4 |
| 20260502110904 | 16 | 280 | 14.5 | 25.7 | 0.00 | 0.00 | 0.00 | 50 | 1001.4 |
| 20260502110025 | 16 | 274 | 11.3 | 27.4 | 0.00 | 0.00 | 0.00 | 50 | 1001.4 |
| 20260502105425 | 16 | 273 | 8.0 | 20.9 | 0.00 | 0.00 | 0.00 | 49 | 1001.4 |
| 20260502104504 | 16 | 283 | 11.3 | 25.7 | 0.00 | 0.00 | 0.00 | 48 | 1001.2 |
| 20260502103625 | 17 | 240 | 8.0 | 16.1 | 0.00 | 0.00 | 0.00 | 47 | 1001.2 |
| 20260502102725 | 17 | 266 | 8.0 | 20.9 | 0.00 | 0.00 | 0.00 | 47 | 1001.1 |
| 20260502101804 | 16 | 246 | 6.4 | 19.3 | 0.00 | 0.00 | 0.00 | 47 | 1001.2 |
| 20260502100904 | 17 | 240 | 9.7 | 20.9 | 0.00 | 0.00 | 0.00 | 46 | 1001.2 |
| 20260502090904 | 16 | 255 | 4.8 | 19.3 | 0.00 | 0.00 | 0.00 | 46 | 1001.8 |
| 20260502070904 | 12 | 173 | 9.7 | 19.3 | 0.00 | 0.00 | 0.00 | 58 | 1003.3 |
| 20260502070004 | 12 | 168 | 9.7 | 19.3 | 0.00 | 0.00 | 0.00 | 60 | 1003.5 |
| 20260502065404 | 12 | 167 | 11.3 | 19.3 | 0.00 | 0.00 | 0.00 | 59 | 1003.6 |
| 20260502064504 | 12 | 176 | 8.0 | 17.7 | 0.00 | 0.00 | 0.00 | 61 | 1003.7 |
| 20260502063604 | 11 | 177 | 8.0 | 17.7 | 0.00 | 0.00 | 0.00 | 60 | 1003.9 |
| 20260502062704 | 11 | 169 | 8.0 | 16.1 | 0.00 | 0.00 | 0.00 | 61 | 1003.9 |
| 20260502061825 | 11 | 172 | 8.0 | 16.1 | 0.00 | 0.00 | 0.00 | 61 | 1004.1 |
| 20260502060904 | 11 | 175 | 8.0 | 14.5 | 0.00 | 0.00 | 0.00 | 61 | 1004.2 |
| 20260502060004 | 11 | 178 | 6.4 | 14.5 | 0.00 | 0.00 | 0.00 | 63 | 1004.4 |
| 20260502055404 | 11 | 188 | 6.4 | 16.1 | 0.00 | 0.00 | 0.00 | 63 | 1004.5 |
| 20260502054504 | 10 | 185 | 8.0 | 16.1 | 0.00 | 0.00 | 0.00 | 65 | 1004.7 |
| 20260502053625 | 10 | 169 | 8.0 | 16.1 | 0.00 | 0.00 | 0.00 | 68 | 1004.7 |
| 20260502052704 | 9 | 169 | 6.4 | 12.9 | 0.00 | 0.00 | 0.00 | 70 | 1004.9 |
| 20260502051825 | 8 | 157 | 6.4 | 11.3 | 0.00 | 0.00 | 0.00 | 72 | 1005.0 |
| 20260502050904 | 8 | 169 | 4.8 | 11.3 | 0.00 | 0.00 | 0.00 | 72 | 1004.9 |
| 20260502050004 | 8 | 205 | 1.6 | 3.2 | 0.00 | 0.00 | 0.00 | 73 | 1005.4 |
| 20260502045425 | 7 | 205 | 1.6 | 3.2 | 0.00 | 0.00 | 0.00 | 73 | 1005.4 |
| 20260502044504 | 7 | 205 | 1.6 | 6.4 | 0.00 | 0.00 | 0.00 | 73 | 1005.5 |
| 20260502043604 | 7 | 205 | 0.0 | 3.2 | 0.00 | 0.00 | 0.00 | 74 | 1005.6 |
| 20260502042704 | 7 | 205 | 1.6 | 4.8 | 0.00 | 0.00 | 0.00 | 75 | 1005.6 |
| 20260502041804 | 7 | 209 | 3.2 | 4.8 | 0.00 | 0.00 | 0.00 | 75 | 1005.6 |
| 20260502040904 | 6 | 190 | 1.6 | 6.4 | 0.00 | 0.00 | 0.00 | 76 | 1005.7 |
| 20260502040004 | 6 | 173 | 1.6 | 4.8 | 0.00 | 0.00 | 0.00 | 76 | 1005.7 |
| 20260502035404 | 6 | 175 | 1.6 | 8.0 | 0.00 | 0.00 | 0.00 | 76 | 1005.8 |
| 20260502034504 | 6 | 201 | 0.0 | 8.0 | 0.00 | 0.00 | 0.00 | 77 | 1006.1 |
| 20260502033604 | 6 | 199 | 0.0 | 3.2 | 0.00 | 0.00 | 0.00 | 77 | 1006.1 |
| 20260502032725 | 5 | 199 | 1.6 | 3.2 | 0.00 | 0.00 | 0.00 | 77 | 1006.3 |
| 20260502031804 | 5 | 199 | 0.0 | 4.8 | 0.00 | 0.00 | 0.00 | 78 | 1006.5 |
| 20260502030925 | 5 | 199 | 0.0 | 3.2 | 0.00 | 0.00 | 0.00 | 79 | 1006.6 |
| 20260502030004 | 5 | 199 | 0.0 | 3.2 | 0.00 | 0.00 | 0.00 | 80 | 1006.7 |
| 20260502025404 | 5 | 199 | 1.6 | 3.2 | 0.00 | 0.00 | 0.00 | 79 | 1006.7 |
| 20260502024504 | 5 | 199 | 0.0 | 1.6 | 0.00 | 0.00 | 0.00 | 79 | 1006.8 |
| 20260502023604 | 5 | 199 | 0.0 | 3.2 | 0.00 | 0.00 | 0.00 | 77 | 1006.9 |
| 20260502022704 | 5 | 199 | 0.0 | 3.2 | 0.00 | 0.00 | 0.00 | 77 | 1007.1 |
| 20260502021804 | 5 | 199 | 0.0 | 6.4 | 0.00 | 0.00 | 0.00 | 76 | 1007.3 |
| 20260502020925 | 5 | 213 | 1.6 | 4.8 | 0.00 | 0.00 | 0.00 | 76 | 1007.4 |
| 20260502020004 | 5 | 222 | 0.0 | 4.8 | 0.00 | 0.00 | 0.00 | 75 | 1007.4 |
| 20260502015425 | 5 | 202 | 1.6 | 4.8 | 0.00 | 0.00 | 0.00 | 75 | 1007.5 |
| 20260502014504 | 5 | 198 | 1.6 | 4.8 | 0.00 | 0.00 | 0.00 | 75 | 1007.5 |
| 20260502013604 | 5 | 222 | 1.6 | 6.4 | 0.00 | 0.00 | 0.00 | 73 | 1007.6 |
| 20260502012725 | 6 | 0 | 0.0 | 0.0 | 0.00 | 0.00 | 0.00 | 73 | 1007.6 |
| 20260502011804 | 6 | 0 | 0.0 | 0.0 | 0.00 | 0.00 | 0.00 | 72 | 1007.8 |
| 20260502010904 | 6 | 0 | 0.0 | 0.0 | 0.00 | 0.00 | 0.00 | 72 | 1007.7 |
| 20260502010004 | 6 | 242 | 0.0 | 4.8 | 0.00 | 0.00 | 0.00 | 72 | 1007.9 |
| 20260502005425 | 6 | 242 | 0.0 | 4.8 | 0.00 | 0.00 | 0.00 | 71 | 1007.9 |
| 20260502004504 | 6 | 242 | 3.2 | 6.4 | 0.00 | 0.00 | 0.00 | 72 | 1008.0 |
| 20260502003604 | 6 | 242 | 3.2 | 6.4 | 0.00 | 0.00 | 0.00 | 72 | 1007.9 |
| 20260502002704 | 6 | 242 | 1.6 | 3.2 | 0.00 | 0.00 | 0.00 | 72 | 1008.0 |
| 20260502001804 | 6 | 242 | 0.0 | 3.2 | 0.00 | 0.00 | 0.00 | 71 | 1008.1 |
| 20260502000904 | 6 | 242 | 1.6 | 3.2 | 0.00 | 0.00 | 0.00 | 71 | 1008.2 |
| 20260502000004 | 6 | 230 | 1.6 | 6.4 | 0.00 | 0.00 | 0.00 | 71 | 1008.1 |
| 20260501235404 | 6 | 223 | 1.6 | 6.4 | 0.00 | 0.00 | 0.00 | 71 | 1008.2 |
| 20260501234504 | 6 | 244 | 1.6 | 4.8 | 0.00 | 0.00 | 0.00 | 71 | 1008.3 |
| 20260501233604 | 6 | 284 | 1.6 | 6.4 | 0.00 | 0.00 | 0.00 | 71 | 1008.4 |
| 20260501232704 | 6 | 292 | 1.6 | 8.0 | 0.00 | 0.00 | 0.00 | 71 | 1008.5 |
| 20260501231804 | 6 | 263 | 3.2 | 9.7 | 0.00 | 0.00 | 0.00 | 70 | 1008.7 |
| 20260501230925 | 6 | 269 | 1.6 | 6.4 | 0.00 | 0.00 | 0.00 | 70 | 1008.7 |
| 20260501230004 | 6 | 267 | 1.6 | 8.0 | 0.00 | 0.00 | 0.00 | 70 | 1008.6 |
| 20260501225403 | 6 | 264 | 3.2 | 11.3 | 0.00 | 0.00 | 0.00 | 69 | 1008.7 |
| 20260501224504 | 6 | 275 | 4.8 | 12.9 | 0.00 | 0.00 | 0.00 | 68 | 1008.7 |
| 20260501223604 | 6 | 277 | 6.4 | 16.1 | 0.00 | 0.00 | 0.00 | 68 | 1008.7 |
| 20260501222704 | 7 | 281 | 1.6 | 9.7 | 0.00 | 0.00 | 0.00 | 68 | 1008.8 |
| 20260501221825 | 7 | 290 | 4.8 | 14.5 | 0.00 | 0.00 | 0.00 | 68 | 1008.6 |
| 20260501220924 | 7 | 281 | 4.8 | 14.5 | 0.00 | 0.00 | 0.00 | 69 | 1008.9 |
| 20260501220025 | 6 | 278 | 4.8 | 14.5 | 0.00 | 0.00 | 0.00 | 70 | 1008.9 |
| 20260501215425 | 6 | 272 | 3.2 | 14.5 | 0.00 | 0.00 | 0.00 | 71 | 1008.9 |
| 20260501214504 | 6 | 282 | 3.2 | 6.4 | 0.00 | 0.00 | 0.00 | 70 | 1008.9 |
| 20260501213604 | 6 | 312 | 1.6 | 6.4 | 0.00 | 0.00 | 0.00 | 71 | 1009.0 |
| 20260501212704 | 6 | 289 | 3.2 | 6.4 | 0.00 | 0.00 | 0.00 | 70 | 1009.1 |
| 20260501211804 | 6 | 277 | 3.2 | 9.7 | 0.00 | 0.00 | 0.00 | 70 | 1009.1 |
| 20260501210904 | 6 | 273 | 1.6 | 9.7 | 0.00 | 0.00 | 0.00 | 70 | 1009.1 |
| 20260501210005 | 7 | 258 | 3.2 | 9.7 | 0.00 | 0.00 | 0.00 | 69 | 1009.1 |
| 20260501205404 | 7 | 271 | 1.6 | 11.3 | 0.00 | 0.00 | 0.00 | 68 | 1009.2 |
| 20260501204525 | 7 | 282 | 3.2 | 11.3 | 0.00 | 0.00 | 0.00 | 67 | 1009.4 |
| 20260501203625 | 8 | 283 | 4.8 | 14.5 | 0.00 | 0.00 | 0.00 | 67 | 1009.5 |
| 20260501202704 | 8 | 283 | 4.8 | 16.1 | 0.00 | 0.00 | 0.00 | 67 | 1009.6 |
| 20260501201825 | 8 | 289 | 3.2 | 9.7 | 0.00 | 0.00 | 0.00 | 67 | 1009.6 |
| 20260501200903 | 8 | 279 | 4.8 | 16.1 | 0.00 | 0.00 | 0.00 | 66 | 1009.7 |
| 20260501200004 | 8 | 271 | 3.2 | 12.9 | 0.00 | 0.00 | 0.00 | 67 | 1009.8 |
| 20260501195404 | 8 | 278 | 3.2 | 12.9 | 0.00 | 0.00 | 0.00 | 67 | 1009.9 |
| 20260501194525 | 8 | 237 | 1.6 | 6.4 | 0.00 | 0.00 | 0.00 | 65 | 1009.8 |
| 20260501193603 | 8 | 246 | 3.2 | 8.0 | 0.00 | 0.00 | 0.00 | 65 | 1009.8 |
| 20260501192704 | 9 | 259 | 3.2 | 12.9 | 0.00 | 0.00 | 0.00 | 63 | 1009.8 |
| 20260501191803 | 10 | 254 | 3.2 | 9.7 | 0.00 | 0.00 | 0.00 | 62 | 1010.0 |
| 20260501190925 | 10 | 274 | 4.8 | 12.9 | 0.00 | 0.00 | 0.00 | 61 | 1009.9 |
| 20260501190004 | 10 | 269 | 6.4 | 16.1 | 0.00 | 0.00 | 0.00 | 60 | 1009.8 |
| 20260501185403 | 11 | 272 | 8.0 | 16.1 | 0.00 | 0.00 | 0.00 | 59 | 1009.8 |
| 20260501184504 | 11 | 274 | 6.4 | 17.7 | 0.00 | 0.00 | 0.00 | 59 | 1009.9 |
| 20260501183604 | 11 | 272 | 4.8 | 14.5 | 0.00 | 0.00 | 0.00 | 58 | 1010.0 |
| 20260501182725 | 11 | 276 | 6.4 | 14.5 | 0.00 | 0.00 | 0.00 | 57 | 1009.9 |
| 20260501181804 | 12 | 275 | 6.4 | 19.3 | 0.00 | 0.00 | 0.00 | 57 | 1009.9 |
| 20260501180904 | 12 | 279 | 4.8 | 16.1 | 0.00 | 0.00 | 0.00 | 57 | 1009.8 |
| 20260501180004 | 12 | 271 | 6.4 | 17.7 | 0.00 | 0.00 | 0.00 | 55 | 1009.9 |
| 20260501175404 | 12 | 267 | 9.7 | 24.1 | 0.00 | 0.00 | 0.00 | 55 | 1009.9 |
| 20260501174504 | 12 | 270 | 4.8 | 17.7 | 0.00 | 0.00 | 0.00 | 55 | 1009.9 |
| 20260501173604 | 13 | 271 | 9.7 | 22.5 | 0.00 | 0.00 | 0.00 | 54 | 1009.8 |
| 20260501172725 | 13 | 278 | 11.3 | 22.5 | 0.00 | 0.00 | 0.00 | 53 | 1009.9 |
| 20260501171804 | 13 | 281 | 9.7 | 24.1 | 0.00 | 0.00 | 0.00 | 53 | 1010.1 |
| 20260501170904 | 13 | 281 | 8.0 | 24.1 | 0.00 | 0.00 | 0.00 | 53 | 1010.1 |
| 20260501170004 | 13 | 279 | 11.3 | 25.7 | 0.00 | 0.00 | 0.00 | 55 | 1010.1 |
| 20260501165404 | 13 | 277 | 9.7 | 25.7 | 0.00 | 0.00 | 0.00 | 54 | 1010.0 |
| 20260501164504 | 13 | 278 | 11.3 | 24.1 | 0.00 | 0.00 | 0.00 | 55 | 1010.1 |